BAW516 EGLL-LPFR

Flight info

Callsign BAW516
Flight time 2h 36m
Altitude 35000
Route GASGU2J GASGU N866 SAM M195 LORKU DCT POZOF DCT BALDA DCT ABUPI DCT ORVED DCT UPULO DCT ALAGU ALAGU5K
Aircraft A320/M-SDE3FGIKRWXY/S

Departure

Time 2026-05-05 13:27
Airport London Heathrow Airport (EGLL)

Arrival

Time 2026-05-05 16:03
Airport Faro - Gago Coutinho International Airport (LPFR)
Time Latitude Longitude Altitude Speed Heading
2026-05-05 13:12 51.47187 -0.48602 87 ft 0 kts 269°
2026-05-05 13:17 51.47187 -0.48565 89 ft 4 kts 269°
2026-05-05 13:17 51.47187 -0.48531 87 ft 4 kts 264°
2026-05-05 13:17 51.47194 -0.48491 89 ft 4 kts 229°
2026-05-05 13:18 51.47213 -0.48475 88 ft 3 kts 179°
2026-05-05 13:18 51.47216 -0.48475 88 ft 0 kts 179°
2026-05-05 13:21 51.47211 -0.48475 88 ft 5 kts 179°
2026-05-05 13:21 51.47175 -0.48474 88 ft 4 kts 177°
2026-05-05 13:21 51.47125 -0.48473 87 ft 10 kts 180°
2026-05-05 13:21 51.47017 -0.48474 87 ft 18 kts 180°
2026-05-05 13:22 51.46890 -0.48472 89 ft 19 kts 179°
2026-05-05 13:22 51.46753 -0.48471 87 ft 20 kts 179°
2026-05-05 13:22 51.46667 -0.48475 87 ft 10 kts 200°
2026-05-05 13:22 51.46651 -0.48580 87 ft 10 kts 273°
2026-05-05 13:23 51.46655 -0.48704 87 ft 12 kts 268°
2026-05-05 13:23 51.46623 -0.48756 90 ft 4 kts 199°
2026-05-05 13:23 51.46608 -0.48764 89 ft 0 kts 198°
2026-05-05 13:24 51.46606 -0.48765 89 ft 1 kts 198°
2026-05-05 13:24 51.46587 -0.48775 88 ft 5 kts 198°
2026-05-05 13:24 51.46537 -0.48794 87 ft 9 kts 180°
2026-05-05 13:25 51.46483 -0.48719 90 ft 12 kts 115°
2026-05-05 13:25 51.46477 -0.48618 88 ft 0 kts 90°
2026-05-05 13:26 51.46477 -0.48535 88 ft 30 kts 90°
2026-05-05 13:26 51.46482 -0.47739 86 ft 109 kts 90°
2026-05-05 13:27 51.46485 -0.46185 94 ft 167 kts 90°
2026-05-05 13:27 51.46486 -0.44301 789 ft 166 kts 87°
2026-05-05 13:27 51.46494 -0.42395 1423 ft 181 kts 90°
2026-05-05 13:27 51.46001 -0.40397 1625 ft 209 kts 126°
2026-05-05 13:28 51.45094 -0.38433 1938 ft 229 kts 122°
2026-05-05 13:28 51.44186 -0.36243 2395 ft 249 kts 120°
2026-05-05 13:28 51.43049 -0.34061 3063 ft 262 kts 140°
2026-05-05 13:28 51.41400 -0.32752 3883 ft 270 kts 165°
2026-05-05 13:29 51.39855 -0.32639 4552 ft 275 kts 188°
2026-05-05 13:29 51.38076 -0.33775 5354 ft 278 kts 216°
2026-05-05 13:29 51.36619 -0.35811 6211 ft 279 kts 223°
2026-05-05 13:29 51.35189 -0.37924 7027 ft 281 kts 223°
2026-05-05 13:30 51.33742 -0.40046 7786 ft 283 kts 222°
2026-05-05 13:30 51.32274 -0.42178 8545 ft 286 kts 222°
2026-05-05 13:30 51.30920 -0.44517 9276 ft 289 kts 236°
2026-05-05 13:30 51.30019 -0.47385 9987 ft 291 kts 253°
2026-05-05 13:31 51.29447 -0.50546 10543 ft 296 kts 255°
2026-05-05 13:31 51.28865 -0.53790 10860 ft 314 kts 255°
2026-05-05 13:31 51.28244 -0.57253 10998 ft 336 kts 254°
2026-05-05 13:31 51.27560 -0.60930 11204 ft 352 kts 253°
2026-05-05 13:32 51.26830 -0.64707 11705 ft 359 kts 253°
2026-05-05 13:32 51.26077 -0.68535 12270 ft 363 kts 253°
2026-05-05 13:32 51.25315 -0.72395 12845 ft 367 kts 253°
2026-05-05 13:32 51.24542 -0.76312 13439 ft 371 kts 253°
2026-05-05 13:33 51.23763 -0.80261 14002 ft 375 kts 253°
2026-05-05 13:33 51.22976 -0.84244 14545 ft 378 kts 253°
2026-05-05 13:33 51.22184 -0.88254 15092 ft 380 kts 253°
2026-05-05 13:33 51.21346 -0.92258 15636 ft 382 kts 248°
2026-05-05 13:34 51.20143 -0.95977 16158 ft 385 kts 237°
2026-05-05 13:34 51.18490 -0.99336 16709 ft 387 kts 226°
2026-05-05 13:34 51.16555 -1.02333 17274 ft 389 kts 224°
2026-05-05 13:34 51.14599 -1.05329 17841 ft 391 kts 224°
2026-05-05 13:35 51.12632 -1.08348 18394 ft 394 kts 224°
2026-05-05 13:35 51.10658 -1.11382 18915 ft 396 kts 224°
2026-05-05 13:35 51.08676 -1.14429 19446 ft 397 kts 224°
2026-05-05 13:35 51.06682 -1.17492 19984 ft 399 kts 224°
2026-05-05 13:36 51.04675 -1.20565 20508 ft 401 kts 224°
2026-05-05 13:36 51.02661 -1.23641 21001 ft 403 kts 224°
2026-05-05 13:36 51.00633 -1.26733 21481 ft 405 kts 224°
2026-05-05 13:36 50.98597 -1.29832 21939 ft 407 kts 224°
2026-05-05 13:37 50.96547 -1.32945 22384 ft 409 kts 223°
2026-05-05 13:37 50.94328 -1.35768 22819 ft 411 kts 214°
2026-05-05 13:37 50.91930 -1.38267 23239 ft 413 kts 213°
2026-05-05 13:37 50.89525 -1.40766 23637 ft 415 kts 213°
2026-05-05 13:38 50.87108 -1.43278 23990 ft 416 kts 213°
2026-05-05 13:38 50.84689 -1.45792 24353 ft 417 kts 213°
2026-05-05 13:38 50.82257 -1.48317 24703 ft 418 kts 213°
2026-05-05 13:38 50.79817 -1.50850 25059 ft 419 kts 213°
2026-05-05 13:39 50.77375 -1.53381 25385 ft 421 kts 213°
2026-05-05 13:39 50.74927 -1.55912 25706 ft 422 kts 212°
2026-05-05 13:39 50.72457 -1.58462 26021 ft 424 kts 212°
2026-05-05 13:39 50.69979 -1.61021 26333 ft 426 kts 212°
2026-05-05 13:40 50.67494 -1.63583 26636 ft 428 kts 212°
2026-05-05 13:40 50.64992 -1.66157 26941 ft 430 kts 212°
2026-05-05 13:40 50.62488 -1.68730 27361 ft 429 kts 212°
2026-05-05 13:40 50.59992 -1.71292 27827 ft 427 kts 212°
2026-05-05 13:41 50.57508 -1.73834 28310 ft 425 kts 212°
2026-05-05 13:41 50.55033 -1.76363 28800 ft 423 kts 212°
2026-05-05 13:41 50.52574 -1.78873 29289 ft 420 kts 212°
2026-05-05 13:41 50.50126 -1.81366 29774 ft 418 kts 212°
2026-05-05 13:42 50.47688 -1.83853 30225 ft 416 kts 212°
2026-05-05 13:42 50.45264 -1.86328 30588 ft 416 kts 212°
2026-05-05 13:42 50.42836 -1.88799 30938 ft 416 kts 212°
2026-05-05 13:42 50.40411 -1.91265 31273 ft 416 kts 212°
2026-05-05 13:43 50.37976 -1.93735 31603 ft 416 kts 212°
2026-05-05 13:43 50.35547 -1.96199 31940 ft 417 kts 212°
2026-05-05 13:43 50.33113 -1.98663 32276 ft 417 kts 212°
2026-05-05 13:43 50.30677 -2.01125 32608 ft 417 kts 212°
2026-05-05 13:44 50.28238 -2.03589 32949 ft 417 kts 212°
2026-05-05 13:44 50.25801 -2.06051 33271 ft 418 kts 212°
2026-05-05 13:44 50.23353 -2.08513 33581 ft 418 kts 212°
2026-05-05 13:44 50.20893 -2.10939 33904 ft 418 kts 212°
2026-05-05 13:45 50.18428 -2.13335 34167 ft 418 kts 212°
2026-05-05 13:45 50.16790 -2.14919 34328 ft 418 kts 211°
2026-05-05 13:45 50.14317 -2.17304 34568 ft 418 kts 211°
2026-05-05 13:45 50.11840 -2.19690 34796 ft 419 kts 211°
2026-05-05 13:46 50.09362 -2.22080 34941 ft 420 kts 211°
2026-05-05 13:46 50.06864 -2.24492 34978 ft 425 kts 211°
2026-05-05 13:46 50.01773 -2.29424 34979 ft 436 kts 212°
2026-05-05 13:47 49.96586 -2.34439 34976 ft 440 kts 212°
2026-05-05 13:47 49.91237 -2.38939 34978 ft 440 kts 204°
2026-05-05 13:48 49.85637 -2.42846 34972 ft 442 kts 204°
2026-05-05 13:48 49.80019 -2.46760 34978 ft 443 kts 204°
2026-05-05 13:49 49.74325 -2.50728 34981 ft 454 kts 204°
2026-05-05 13:49 49.68511 -2.54765 34973 ft 460 kts 204°
2026-05-05 13:50 49.62662 -2.58813 34975 ft 461 kts 204°
2026-05-05 13:50 49.56802 -2.62854 34974 ft 461 kts 204°
2026-05-05 13:51 49.50948 -2.66882 34976 ft 461 kts 204°
2026-05-05 13:51 49.45095 -2.70906 34988 ft 461 kts 204°
2026-05-05 13:52 49.39227 -2.74917 34996 ft 461 kts 203°
2026-05-05 13:52 49.33364 -2.78916 35000 ft 461 kts 203°
2026-05-05 13:53 49.27504 -2.82921 35003 ft 461 kts 203°
2026-05-05 13:53 49.21644 -2.86914 35002 ft 461 kts 203°
2026-05-05 13:54 49.15782 -2.90888 35004 ft 461 kts 203°
2026-05-05 13:54 49.09927 -2.94851 35005 ft 460 kts 203°
2026-05-05 13:55 49.04079 -2.98797 35007 ft 459 kts 202°
2026-05-05 13:55 48.98233 -3.02724 35002 ft 459 kts 202°
2026-05-05 13:56 48.92386 -3.06644 34998 ft 459 kts 202°
2026-05-05 13:56 48.86538 -3.10557 34997 ft 459 kts 202°
2026-05-05 13:57 48.80681 -3.14467 35000 ft 460 kts 202°
2026-05-05 13:57 48.74817 -3.18369 35000 ft 460 kts 202°
2026-05-05 13:58 48.68955 -3.22260 34999 ft 460 kts 202°
2026-05-05 13:58 48.63125 -3.26131 34999 ft 460 kts 202°
2026-05-05 13:59 48.54313 -3.31953 35001 ft 461 kts 202°
2026-05-05 14:00 48.45492 -3.37752 34996 ft 461 kts 202°
2026-05-05 14:00 48.39601 -3.41607 34994 ft 461 kts 202°
2026-05-05 14:01 48.33712 -3.45473 34992 ft 462 kts 202°
2026-05-05 14:01 48.27815 -3.49321 34993 ft 462 kts 202°
2026-05-05 14:02 48.21907 -3.53156 34988 ft 462 kts 202°
2026-05-05 14:02 48.15996 -3.56986 34984 ft 463 kts 202°
2026-05-05 14:03 48.10121 -3.60799 34983 ft 463 kts 202°
2026-05-05 14:03 48.04201 -3.64628 34976 ft 463 kts 202°
2026-05-05 14:04 47.98279 -3.68442 34977 ft 464 kts 202°
2026-05-05 14:04 47.92350 -3.72243 34981 ft 464 kts 202°
2026-05-05 14:05 47.86425 -3.76045 34978 ft 464 kts 202°
2026-05-05 14:05 47.80487 -3.79845 34980 ft 464 kts 201°
2026-05-05 14:06 47.74555 -3.83624 34976 ft 464 kts 201°
2026-05-05 14:06 47.68603 -3.87415 34975 ft 465 kts 201°
2026-05-05 14:07 47.62652 -3.91203 34976 ft 465 kts 201°
2026-05-05 14:07 47.56696 -3.94970 34978 ft 465 kts 201°
2026-05-05 14:08 47.50774 -3.98701 34981 ft 466 kts 201°
2026-05-05 14:08 47.44810 -4.02454 34973 ft 466 kts 201°
2026-05-05 14:09 47.38835 -4.06207 34976 ft 467 kts 201°
2026-05-05 14:09 47.32862 -4.09954 34985 ft 467 kts 201°
2026-05-05 14:10 47.26878 -4.13698 34979 ft 468 kts 201°
2026-05-05 14:10 47.20885 -4.17439 34980 ft 468 kts 201°
2026-05-05 14:11 47.14881 -4.21176 34977 ft 469 kts 201°
2026-05-05 14:11 47.08858 -4.24909 34979 ft 470 kts 201°
2026-05-05 14:12 47.02813 -4.28550 34973 ft 470 kts 199°
2026-05-05 14:12 46.96676 -4.31903 34982 ft 470 kts 198°
2026-05-05 14:13 46.90514 -4.35161 34980 ft 471 kts 198°
2026-05-05 14:13 46.84351 -4.38494 34985 ft 472 kts 199°
2026-05-05 14:14 46.78244 -4.41850 34980 ft 473 kts 199°
2026-05-05 14:14 46.72041 -4.45243 34981 ft 473 kts 199°
2026-05-05 14:15 46.65867 -4.48583 34982 ft 474 kts 199°
2026-05-05 14:15 46.59682 -4.51920 34987 ft 474 kts 199°
2026-05-05 14:16 46.53498 -4.55253 34985 ft 474 kts 199°
2026-05-05 14:16 46.47313 -4.58586 34988 ft 474 kts 199°
2026-05-05 14:17 46.41121 -4.61909 34992 ft 475 kts 200°
2026-05-05 14:17 46.34969 -4.65207 34991 ft 475 kts 200°
2026-05-05 14:18 46.28764 -4.68520 34990 ft 475 kts 200°
2026-05-05 14:18 46.22557 -4.71835 34992 ft 476 kts 200°
2026-05-05 14:19 46.16337 -4.75141 34991 ft 476 kts 200°
2026-05-05 14:19 46.10109 -4.78443 34996 ft 477 kts 200°
2026-05-05 14:20 46.03879 -4.81749 34996 ft 477 kts 200°
2026-05-05 14:20 45.97634 -4.85061 34999 ft 478 kts 200°
2026-05-05 14:21 45.91432 -4.88332 34997 ft 478 kts 200°
2026-05-05 14:21 45.85179 -4.91614 34999 ft 478 kts 200°
2026-05-05 14:22 45.78924 -4.94883 34998 ft 479 kts 200°
2026-05-05 14:22 45.72663 -4.98155 34996 ft 479 kts 200°
2026-05-05 14:23 45.66383 -5.01424 34996 ft 480 kts 200°
2026-05-05 14:23 45.60107 -5.04701 35000 ft 480 kts 201°
2026-05-05 14:24 45.53825 -5.07973 35005 ft 481 kts 200°
2026-05-05 14:24 45.47533 -5.11225 35004 ft 481 kts 200°
2026-05-05 14:25 45.41230 -5.14480 35007 ft 482 kts 200°
2026-05-05 14:25 45.34922 -5.17736 35013 ft 482 kts 200°
2026-05-05 14:26 45.28618 -5.20991 35013 ft 482 kts 200°
2026-05-05 14:26 45.22299 -5.24224 35017 ft 483 kts 200°
2026-05-05 14:27 45.16018 -5.27432 35018 ft 483 kts 200°
2026-05-05 14:27 45.09700 -5.30667 35016 ft 482 kts 201°
2026-05-05 14:28 45.03385 -5.33894 35021 ft 482 kts 201°
2026-05-05 14:28 44.97067 -5.37108 35027 ft 482 kts 200°
2026-05-05 14:29 44.90752 -5.40304 35021 ft 482 kts 200°
2026-05-05 14:29 44.84429 -5.43494 35022 ft 482 kts 200°
2026-05-05 14:30 44.78150 -5.46665 35032 ft 482 kts 201°
2026-05-05 14:30 44.71832 -5.49850 35032 ft 482 kts 201°
2026-05-05 14:31 44.65523 -5.53020 35030 ft 482 kts 201°
2026-05-05 14:31 44.59227 -5.56230 35032 ft 481 kts 202°
2026-05-05 14:32 44.54068 -5.59294 35031 ft 480 kts 206°
2026-05-05 14:32 44.48049 -5.63199 35032 ft 480 kts 206°
2026-05-05 14:33 44.41983 -5.67090 35036 ft 480 kts 206°
2026-05-05 14:33 44.39118 -5.69427 35032 ft 476 kts 221°
2026-05-05 14:33 44.36838 -5.72721 35029 ft 470 kts 237°
2026-05-05 14:34 44.35324 -5.76727 35032 ft 465 kts 253°
2026-05-05 14:34 44.34562 -5.81090 35032 ft 462 kts 263°
2026-05-05 14:34 44.33776 -5.90007 35028 ft 463 kts 265°
2026-05-05 14:35 44.33032 -5.98942 35027 ft 463 kts 265°
2026-05-05 14:35 44.32278 -6.07890 35039 ft 464 kts 265°
2026-05-05 14:36 44.31511 -6.16830 35039 ft 464 kts 265°
2026-05-05 14:36 44.30731 -6.25776 35044 ft 464 kts 265°
2026-05-05 14:37 44.29938 -6.34726 35049 ft 464 kts 265°
2026-05-05 14:37 44.29131 -6.43655 35049 ft 464 kts 265°
2026-05-05 14:38 44.28310 -6.52590 35050 ft 464 kts 265°
2026-05-05 14:38 44.27476 -6.61509 35057 ft 464 kts 264°
2026-05-05 14:39 44.26627 -6.70424 35052 ft 463 kts 264°
2026-05-05 14:39 44.25765 -6.79330 35052 ft 463 kts 264°
2026-05-05 14:40 44.24888 -6.88228 35061 ft 463 kts 264°
2026-05-05 14:40 44.23999 -6.97110 35063 ft 462 kts 264°
2026-05-05 14:41 44.23096 -7.05977 35069 ft 462 kts 264°
2026-05-05 14:41 44.22184 -7.14782 35067 ft 461 kts 264°
2026-05-05 14:42 44.21253 -7.23627 35066 ft 461 kts 264°
2026-05-05 14:42 44.20305 -7.32522 35067 ft 460 kts 264°
2026-05-05 14:43 44.19357 -7.41287 35066 ft 460 kts 264°
2026-05-05 14:43 44.18394 -7.50099 35068 ft 460 kts 264°
2026-05-05 14:44 44.17419 -7.58901 35072 ft 459 kts 264°
2026-05-05 14:44 44.16432 -7.67691 35068 ft 459 kts 264°
2026-05-05 14:45 44.15433 -7.76470 35075 ft 459 kts 264°
2026-05-05 14:45 44.14423 -7.85233 35076 ft 458 kts 264°
2026-05-05 14:46 44.13405 -7.93939 35079 ft 458 kts 264°
2026-05-05 14:46 44.12370 -8.02680 35076 ft 458 kts 264°
2026-05-05 14:47 44.11320 -8.11409 35080 ft 457 kts 264°
2026-05-05 14:47 44.10253 -8.20122 35079 ft 457 kts 264°
2026-05-05 14:48 44.09169 -8.28831 35083 ft 456 kts 264°
2026-05-05 14:48 44.08070 -8.37516 35085 ft 456 kts 264°
2026-05-05 14:49 44.06951 -8.46202 35087 ft 455 kts 264°
2026-05-05 14:49 44.05817 -8.54858 35084 ft 455 kts 264°
2026-05-05 14:50 44.04675 -8.63435 35088 ft 454 kts 264°
2026-05-05 14:50 44.03508 -8.72064 35088 ft 453 kts 264°
2026-05-05 14:51 44.02325 -8.80663 35104 ft 453 kts 264°
2026-05-05 14:51 44.01123 -8.89248 35086 ft 452 kts 264°
2026-05-05 14:52 43.99915 -8.97821 35092 ft 452 kts 264°
2026-05-05 14:52 43.98710 -9.06375 35100 ft 451 kts 264°
2026-05-05 14:53 43.97506 -9.14919 35086 ft 451 kts 264°
2026-05-05 14:53 43.96302 -9.23454 35096 ft 450 kts 264°
2026-05-05 14:54 43.95100 -9.31980 35094 ft 450 kts 264°
2026-05-05 14:54 43.93910 -9.40503 35095 ft 450 kts 264°
2026-05-05 14:55 43.92343 -9.48906 35095 ft 458 kts 248°
2026-05-05 14:55 43.90561 -9.52616 35091 ft 468 kts 232°
2026-05-05 14:55 43.88089 -9.55515 35086 ft 478 kts 216°
2026-05-05 14:56 43.82352 -9.60230 35084 ft 480 kts 214°
2026-05-05 14:56 43.76576 -9.64869 35088 ft 480 kts 214°
2026-05-05 14:57 43.70799 -9.69517 35098 ft 480 kts 214°
2026-05-05 14:57 43.65006 -9.74201 35104 ft 479 kts 215°
2026-05-05 14:58 43.59297 -9.78810 35105 ft 478 kts 215°
2026-05-05 14:58 43.53551 -9.83427 35113 ft 477 kts 215°
2026-05-05 14:59 43.47817 -9.88027 35114 ft 476 kts 214°
2026-05-05 14:59 43.42093 -9.92604 35111 ft 475 kts 214°
2026-05-05 15:00 43.37345 -9.96395 35113 ft 474 kts 214°
2026-05-05 15:00 43.30680 -10.01711 35121 ft 473 kts 214°
2026-05-05 15:01 43.24986 -10.06238 35121 ft 473 kts 214°
2026-05-05 15:01 43.19296 -10.10754 35122 ft 472 kts 214°
2026-05-05 15:02 43.13608 -10.15251 35129 ft 472 kts 214°
2026-05-05 15:02 43.07931 -10.19732 35128 ft 471 kts 214°
2026-05-05 15:03 43.02267 -10.24206 35127 ft 470 kts 214°
2026-05-05 15:03 42.96604 -10.28653 35126 ft 469 kts 214°
2026-05-05 15:04 42.90946 -10.33082 35133 ft 468 kts 214°
2026-05-05 15:04 42.85300 -10.37497 35141 ft 468 kts 214°
2026-05-05 15:05 42.76838 -10.44103 35142 ft 467 kts 214°
2026-05-05 15:06 42.71215 -10.48491 35143 ft 466 kts 214°
2026-05-05 15:06 42.65626 -10.52833 35145 ft 465 kts 214°
2026-05-05 15:07 42.61355 -10.56139 35142 ft 465 kts 214°
2026-05-05 15:07 42.55747 -10.60481 35143 ft 464 kts 214°
2026-05-05 15:08 42.50148 -10.64811 35145 ft 463 kts 214°
2026-05-05 15:08 42.44555 -10.69128 35144 ft 462 kts 214°
2026-05-05 15:09 42.38967 -10.73420 35142 ft 461 kts 214°
2026-05-05 15:09 42.33140 -10.77088 35145 ft 469 kts 197°
2026-05-05 15:09 42.29879 -10.77631 35137 ft 476 kts 182°
2026-05-05 15:10 42.26576 -10.77077 35135 ft 483 kts 168°
2026-05-05 15:10 42.23435 -10.75427 35130 ft 488 kts 153°
2026-05-05 15:10 42.20688 -10.72824 35128 ft 492 kts 141°
2026-05-05 15:11 42.15486 -10.66800 35120 ft 493 kts 141°
2026-05-05 15:11 42.10269 -10.60787 35122 ft 494 kts 141°
2026-05-05 15:12 42.05033 -10.54779 35122 ft 494 kts 142°
2026-05-05 15:12 41.99786 -10.48776 35127 ft 495 kts 142°
2026-05-05 15:13 41.94535 -10.42775 35134 ft 496 kts 142°
2026-05-05 15:13 41.89272 -10.36780 35139 ft 496 kts 142°
2026-05-05 15:14 41.84005 -10.30789 35137 ft 496 kts 142°
2026-05-05 15:14 41.78768 -10.24853 35141 ft 496 kts 142°
2026-05-05 15:15 41.73492 -10.18885 35130 ft 496 kts 142°
2026-05-05 15:15 41.68222 -10.12924 35137 ft 496 kts 142°
2026-05-05 15:16 41.62938 -10.06963 35137 ft 496 kts 142°
2026-05-05 15:16 41.57656 -10.01028 35131 ft 496 kts 142°
2026-05-05 15:17 41.52373 -9.95088 35128 ft 496 kts 142°
2026-05-05 15:17 41.47088 -9.89166 35127 ft 496 kts 142°
2026-05-05 15:18 41.41788 -9.83251 35124 ft 496 kts 143°
2026-05-05 15:18 41.36493 -9.77350 35122 ft 496 kts 143°
2026-05-05 15:19 41.32088 -9.72449 35121 ft 496 kts 143°
2026-05-05 15:19 41.26787 -9.66565 35121 ft 496 kts 143°
2026-05-05 15:20 41.21480 -9.60692 35124 ft 496 kts 143°
2026-05-05 15:20 41.16174 -9.54831 35124 ft 496 kts 143°
2026-05-05 15:21 41.10873 -9.48973 35124 ft 496 kts 143°
2026-05-05 15:21 41.05599 -9.43157 35124 ft 496 kts 143°
2026-05-05 15:22 41.00284 -9.37322 35123 ft 496 kts 143°
2026-05-05 15:22 40.94969 -9.31500 35114 ft 496 kts 143°
2026-05-05 15:23 40.89646 -9.25675 35115 ft 496 kts 143°
2026-05-05 15:23 40.84323 -9.19860 35116 ft 496 kts 143°
2026-05-05 15:24 40.79004 -9.14072 35116 ft 496 kts 143°
2026-05-05 15:24 40.73675 -9.08287 35115 ft 496 kts 144°
2026-05-05 15:25 40.68359 -9.02506 35111 ft 496 kts 144°
2026-05-05 15:25 40.63065 -8.96774 35110 ft 496 kts 144°
2026-05-05 15:26 40.57733 -8.91027 35109 ft 495 kts 144°
2026-05-05 15:26 40.52401 -8.85285 35106 ft 495 kts 144°
2026-05-05 15:27 40.47066 -8.79555 35107 ft 495 kts 144°
2026-05-05 15:27 40.41722 -8.73842 35101 ft 494 kts 147°
2026-05-05 15:28 40.35948 -8.69054 35096 ft 490 kts 153°
2026-05-05 15:28 40.30131 -8.64370 35095 ft 491 kts 153°
2026-05-05 15:29 40.24317 -8.59699 35090 ft 491 kts 153°
2026-05-05 15:29 40.18497 -8.55018 35087 ft 491 kts 153°
2026-05-05 15:30 40.12675 -8.50339 35087 ft 491 kts 153°
2026-05-05 15:30 40.06846 -8.45675 35077 ft 491 kts 153°
2026-05-05 15:31 40.01015 -8.41021 35076 ft 491 kts 153°
2026-05-05 15:31 39.95185 -8.36380 35072 ft 491 kts 153°
2026-05-05 15:32 39.89353 -8.31741 35067 ft 491 kts 153°
2026-05-05 15:32 39.83560 -8.27130 35060 ft 491 kts 154°
2026-05-05 15:33 39.77719 -8.22512 35063 ft 491 kts 154°
2026-05-05 15:33 39.71879 -8.17905 35058 ft 491 kts 154°
2026-05-05 15:34 39.66045 -8.13294 35060 ft 491 kts 154°
2026-05-05 15:34 39.60211 -8.08690 35054 ft 491 kts 154°
2026-05-05 15:35 39.54367 -8.04102 35049 ft 490 kts 154°
2026-05-05 15:35 39.48526 -7.99531 35055 ft 490 kts 154°
2026-05-05 15:36 39.42688 -7.94965 35042 ft 490 kts 154°
2026-05-05 15:36 39.36849 -7.90394 35042 ft 490 kts 154°
2026-05-05 15:37 39.31012 -7.85831 35037 ft 490 kts 154°
2026-05-05 15:37 39.25168 -7.81288 35034 ft 490 kts 155°
2026-05-05 15:38 39.19317 -7.76754 35029 ft 491 kts 155°
2026-05-05 15:38 39.13460 -7.72227 35028 ft 491 kts 155°
2026-05-05 15:39 39.07567 -7.67800 35022 ft 486 kts 161°
2026-05-05 15:39 39.01251 -7.65264 35020 ft 468 kts 179°
2026-05-05 15:40 38.94840 -7.64837 35020 ft 460 kts 186°
2026-05-05 15:40 38.88427 -7.64584 35022 ft 461 kts 186°
2026-05-05 15:41 38.82055 -7.64312 35020 ft 457 kts 186°
2026-05-05 15:41 38.75816 -7.64040 35023 ft 444 kts 186°
2026-05-05 15:42 38.69659 -7.63799 35021 ft 442 kts 186°
2026-05-05 15:42 38.63503 -7.63576 35023 ft 442 kts 186°
2026-05-05 15:43 38.57361 -7.63344 35021 ft 442 kts 186°
2026-05-05 15:43 38.51216 -7.63101 34203 ft 443 kts 186°
2026-05-05 15:43 38.48108 -7.62984 32698 ft 449 kts 186°
2026-05-05 15:44 38.45025 -7.62860 32017 ft 437 kts 186°
2026-05-05 15:44 38.42007 -7.62731 31142 ft 431 kts 186°
2026-05-05 15:44 38.39041 -7.62607 30404 ft 422 kts 186°
2026-05-05 15:44 38.36142 -7.62487 29881 ft 414 kts 186°
2026-05-05 15:45 38.33264 -7.62377 29304 ft 413 kts 186°
2026-05-05 15:45 38.30385 -7.62274 28751 ft 414 kts 186°
2026-05-05 15:45 38.27516 -7.62168 28198 ft 411 kts 185°
2026-05-05 15:45 38.24660 -7.62057 27646 ft 409 kts 185°
2026-05-05 15:46 38.21819 -7.61947 27095 ft 408 kts 185°
2026-05-05 15:46 38.18991 -7.61838 26549 ft 406 kts 184°
2026-05-05 15:46 38.16165 -7.61728 26005 ft 406 kts 184°
2026-05-05 15:46 38.13346 -7.61617 25459 ft 405 kts 184°
2026-05-05 15:47 38.10526 -7.61506 25106 ft 408 kts 183°
2026-05-05 15:47 38.08626 -7.61436 24789 ft 415 kts 183°
2026-05-05 15:47 38.04721 -7.61368 23798 ft 419 kts 184°
2026-05-05 15:47 38.01833 -7.61353 23397 ft 412 kts 184°
2026-05-05 15:48 37.99019 -7.61353 22871 ft 408 kts 184°
2026-05-05 15:48 37.96186 -7.61360 22367 ft 405 kts 184°
2026-05-05 15:48 37.93373 -7.61372 21876 ft 402 kts 184°
2026-05-05 15:48 37.90584 -7.61383 21389 ft 400 kts 184°
2026-05-05 15:49 37.87809 -7.61391 20911 ft 398 kts 184°
2026-05-05 15:49 37.85048 -7.61396 20425 ft 396 kts 184°
2026-05-05 15:49 37.82297 -7.61398 19934 ft 395 kts 183°
2026-05-05 15:49 37.79559 -7.61399 19438 ft 393 kts 183°
2026-05-05 15:50 37.76829 -7.61398 18933 ft 392 kts 183°
2026-05-05 15:50 37.74107 -7.61400 18418 ft 390 kts 183°
2026-05-05 15:50 37.71390 -7.61408 17843 ft 390 kts 183°
2026-05-05 15:50 37.68688 -7.61416 17307 ft 387 kts 183°
2026-05-05 15:51 37.66000 -7.61420 16771 ft 384 kts 182°
2026-05-05 15:51 37.63338 -7.61421 16232 ft 382 kts 182°
2026-05-05 15:51 37.60685 -7.61421 15695 ft 380 kts 182°
2026-05-05 15:51 37.58049 -7.61423 15153 ft 378 kts 182°
2026-05-05 15:52 37.55426 -7.61428 14615 ft 376 kts 182°
2026-05-05 15:52 37.52814 -7.61432 14073 ft 375 kts 182°
2026-05-05 15:52 37.50205 -7.61436 13498 ft 373 kts 182°
2026-05-05 15:52 37.47617 -7.61440 12941 ft 371 kts 182°
2026-05-05 15:53 37.45049 -7.61441 12406 ft 368 kts 182°
2026-05-05 15:53 37.42501 -7.61440 11871 ft 365 kts 182°
2026-05-05 15:53 37.39970 -7.61443 11337 ft 362 kts 182°
2026-05-05 15:53 37.37455 -7.61449 10805 ft 360 kts 182°
2026-05-05 15:54 37.34968 -7.61455 10492 ft 352 kts 182°
2026-05-05 15:54 37.32586 -7.61456 10369 ft 339 kts 182°
2026-05-05 15:54 37.30269 -7.61455 10244 ft 328 kts 182°
2026-05-05 15:54 37.28026 -7.61454 10137 ft 317 kts 182°
2026-05-05 15:55 37.25850 -7.61454 10001 ft 308 kts 182°
2026-05-05 15:55 37.23729 -7.61455 9772 ft 303 kts 182°
2026-05-05 15:55 37.21626 -7.61460 9375 ft 300 kts 182°
2026-05-05 15:55 37.19541 -7.61467 8742 ft 299 kts 181°
2026-05-05 15:56 37.17467 -7.61472 8164 ft 297 kts 181°
2026-05-05 15:56 37.15403 -7.61475 7658 ft 297 kts 181°
2026-05-05 15:56 37.13346 -7.61479 7300 ft 293 kts 181°
2026-05-05 15:56 37.11315 -7.61482 7043 ft 289 kts 181°
2026-05-05 15:57 37.09313 -7.61560 7018 ft 288 kts 189°
2026-05-05 15:57 37.07391 -7.62200 7025 ft 286 kts 205°
2026-05-05 15:57 37.05649 -7.63378 6977 ft 285 kts 212°
2026-05-05 15:57 37.03933 -7.64636 6559 ft 285 kts 212°
2026-05-05 15:58 37.02220 -7.65887 5922 ft 285 kts 212°
2026-05-05 15:58 37.00532 -7.67164 5300 ft 282 kts 219°
2026-05-05 15:58 36.99232 -7.68939 4614 ft 277 kts 243°
2026-05-05 15:58 36.98625 -7.71168 4123 ft 264 kts 267°
2026-05-05 15:59 36.98618 -7.73349 4008 ft 240 kts 275°
2026-05-05 15:59 36.98657 -7.75348 3893 ft 222 kts 275°
2026-05-05 15:59 36.98736 -7.77234 3560 ft 214 kts 280°
2026-05-05 15:59 36.98941 -7.79055 3171 ft 209 kts 283°
2026-05-05 16:00 36.99189 -7.80829 2772 ft 204 kts 283°
2026-05-05 16:00 36.99434 -7.82539 2350 ft 194 kts 283°
2026-05-05 16:00 36.99662 -7.84104 2188 ft 171 kts 283°
2026-05-05 16:00 36.99857 -7.85499 2017 ft 157 kts 283°
2026-05-05 16:01 37.00047 -7.86818 1783 ft 148 kts 284°
2026-05-05 16:01 37.00224 -7.88043 1547 ft 140 kts 283°
2026-05-05 16:01 37.00392 -7.89221 1268 ft 135 kts 283°
2026-05-05 16:01 37.00502 -7.89983 1063 ft 134 kts 283°
2026-05-05 16:02 37.00721 -7.91520 815 ft 135 kts 281°
2026-05-05 16:02 37.00885 -7.92687 599 ft 137 kts 279°
2026-05-05 16:02 37.01057 -7.93842 395 ft 134 kts 278°
2026-05-05 16:02 37.01208 -7.94986 223 ft 134 kts 277°
2026-05-05 16:03 37.01381 -7.96126 37 ft 133 kts 278°
2026-05-05 16:03 37.01512 -7.97067 20 ft 75 kts 279°
2026-05-05 16:03 37.01565 -7.97411 19 ft 56 kts 279°
2026-05-05 16:03 37.01644 -7.97956 24 ft 36 kts 290°
2026-05-05 16:04 37.01746 -7.98180 21 ft 10 kts 313°
2026-05-05 16:04 37.01790 -7.98227 21 ft 11 kts 336°
2026-05-05 16:04 37.01853 -7.98183 20 ft 14 kts 97°
2026-05-05 16:04 37.01841 -7.98093 22 ft 5 kts 99°
2026-05-05 16:05 37.01835 -7.98041 20 ft 7 kts 99°
2026-05-05 16:05 37.01824 -7.97968 20 ft 11 kts 100°
2026-05-05 16:05 37.01807 -7.97843 20 ft 18 kts 99°
2026-05-05 16:05 37.01792 -7.97726 20 ft 22 kts 101°
2026-05-05 16:06 37.01759 -7.97512 20 ft 27 kts 100°
2026-05-05 16:06 37.01725 -7.97271 20 ft 29 kts 100°
2026-05-05 16:06 37.01689 -7.97020 20 ft 20 kts 100°
2026-05-05 16:06 37.01676 -7.96936 20 ft 5 kts 99°
2026-05-05 16:07 37.01699 -7.96907 20 ft 6 kts 19°
2026-05-05 16:07 37.01746 -7.96895 21 ft 1 kts 12°
2026-05-05 16:07 37.01775 -7.96888 20 ft 10 kts 12°
2026-05-05 16:08 37.01827 -7.96826 20 ft 11 kts 101°
2026-05-05 16:08 37.01840 -7.96781 21 ft 4 kts 345°
2026-05-05 16:08 37.01875 -7.96777 20 ft 6 kts 14°
2026-05-05 16:08 37.01900 -7.96771 21 ft 2 kts
2026-05-05 16:09 37.01905 -7.96770 20 ft 0 kts